Location: Bucksport
(44.6167°N, 68.8000°W)
Time: 01:02:57
(UTC-05:00)

ISS - Visible Passes

Search period start: 18 February 2019 00:00
Search period end: 28 February 2019 00:00
Orbit: 403 x 411 km, 51.6° (Epoch: 18 February)

Date Brightness Start Highest point End Pass type
(mag) Time Alt. Az. Time Alt. Az. Time Alt. Az.
23 Feb -1.1 05:10:00 10° S 05:12:17 18° SE 05:14:34 10° E visible
25 Feb -2.6 05:02:52 13° SSW 05:05:32 39° SE 05:08:37 10° ENE visible
26 Feb -1.8 04:13:51 22° SE 04:14:08 23° SE 04:16:47 10° E visible
27 Feb -3.9 04:57:23 30° WSW 04:58:53 89° SSW 05:02:10 10° ENE visible
